Weather in Miluvatka

Ukraine / Luhansk Region     49°20′30″N   38°09′40″E
temp.,
°C
wind,
m/s
gust,
m/s
humid.,
%
clouds,
%
prec.,
mm/h
press.,
hPa
HPBL,
m
22 april, thu
thu2200:00+8ssw357284 0.0 101873
03:00+7sw338432 0.2 101945
06:00+6sw24875 0.0 102067
09:00+12sw33665 0.0 1021530
12:00+16sw344625 0.1 10211922
15:00+16wsw3446100 0.1 10211746
18:00+15s115499 0.0 102139
21:00+12ssw225882 0.0 102126
23 april, fri
fri2300:00+10ssw226621 0.0 102119
03:00+8ssw22785 0.0 102117
06:00+9ssw248596 0.0 102182
09:00+12sw467299 0.0 1021421
12:00+17sw674722 0.6 10192028
15:00+17ssw4643100 0.7 10181189
18:00+16ssw584825 0.0 1016501
21:00+13ssw6125442 0.0 1016633
24 april, sat
sat2400:00+10ssw51268100 0.0 1015441
03:00+10ssw41278100 0.3 1014482
06:00+9sw51079100 0.2 1013765
09:00+7nw6887100 0.8 1015934
12:00+11w795279 0.3 10151859
15:00+12wsw91037100 0.6 10142689
18:00+11w794782 0.1 10151883
21:00+6w610685 0.2 10171107
25 april, sun
sun2500:00+4w611735 0.0 1018651
03:00+4wnw6971100 0.0 1019976
06:00+3w59771 0.0 1020356
09:00+8wnw68535 0.0 10201226
12:00+11w5738100 0.0 10202428
15:00+12w563395 0.0 10192439
18:00+11wsw44405 0.0 10191832
21:00+7ssw224930 0.0 101919
26 april, mon
mon2600:00+6ssw33545 0.0 101929
03:00+5sw3657100 0.0 101887
06:00+4wsw2469100 0.0 101880
09:00+9ssw3458100 0.0 1017684
12:00+13ssw71042100 0.0 10152292
15:00+8w71078100 0.4 1016982
18:00+6w577336 0.1 1016965
21:00+4ssw35774 0.1 101670